Weather History for Glendive, MT

Change the Weather History Date:

Monday, December 10, 2012

  Actual Average Record
Temperature  
Mean Temperature 20 °F -  
Max Temperature 28 °F 33 °F 48 °F (2002)
Min Temperature 12 °F 14 °F -18 °F (2000)
Degree Days  
Heating Degree Days 45    
Moisture  
Dew Point 16 °F    
Average Humidity 74    
Maximum Humidity 93    
Minimum Humidity 68    
Precipitation  
Precipitation 0.00 in - - ()
Sea Level Pressure  
Sea Level Pressure 29.76 in    
Wind  
Wind Speed 14 mph (West)    
Max Wind Speed 22 mph    
Max Gust Speed 29 mph    
Visibility 10 miles    
Events      
Averages and records for this station are not official NWS values.
T = Trace of Precipitation, MM = Missing Value Source: NWS Daily Summary

Daily Weather History Graph

Daily Weather History Graph

Search for Another Location

Airport:

Trip Planner

Search our weather history database for the weather conditions in past years. The results will help you decide how hot, cold, wet, or windy it might be!

Date:

Astronomy

Dec. 10, 2012 Rise Set
Actual Time 7:35 AM MST 4:09 PM MST
Civil Twilight 6:59 AM MST 4:44 PM MST
Nautical Twilight 6:20 AM MST 5:23 PM MST
Astronomical Twilight 5:43 AM MST 6:00 PM MST
Moon 4:13 AM MST (12/10) 2:06 PM MST (12/10)
Length of Visible Light 9h 45m
Length of Day
8h 34m
Waning Crescent, 10% of the Moon is Illuminated
Dec 10
Waning Crescent
Dec 13
New
Dec 19
First Quarter
Dec 28
Full
Jan 4
Last Quarter

Hourly Weather History & Observations

Time (MST) Temp. Windchill Dew Point Humidity Pressure Visibility Wind Dir Wind Speed Gust Speed Precip Events Conditions
12:15 AM 12.2 °F -4.3 °F 5.0 °F 73% 29.80 in 10.0 mi SSW 16.1 mph - N/A   Mostly Cloudy
12:35 AM 12.2 °F -4.8 °F 5.0 °F 73% 29.80 in 10.0 mi SSW 17.3 mph - N/A   Scattered Clouds
12:55 AM 12.2 °F -3.1 °F 6.8 °F 79% 29.79 in 10.0 mi SSW 13.8 mph - N/A   Mostly Cloudy
1:15 AM 12.2 °F -1.8 °F 6.8 °F 79% 29.78 in 10.0 mi South 11.5 mph - N/A   Overcast
1:35 AM 15.8 °F 2.1 °F 8.6 °F 73% 29.76 in 10.0 mi South 12.7 mph - N/A   Overcast
1:55 AM 15.8 °F 2.1 °F 6.8 °F 68% 29.75 in 10.0 mi SSW 12.7 mph - N/A   Overcast
2:15 AM 15.8 °F 2.1 °F 6.8 °F 68% 29.75 in 10.0 mi SSW 12.7 mph - N/A   Mostly Cloudy
2:35 AM 15.8 °F 4.2 °F 6.8 °F 68% 29.74 in 10.0 mi SW 9.2 mph - N/A   Scattered Clouds
2:55 AM 15.8 °F 4.2 °F 8.6 °F 73% 29.73 in 10.0 mi SW 9.2 mph - N/A   Partly Cloudy
3:15 AM 17.6 °F 5.7 °F 8.6 °F 68% 29.72 in 10.0 mi SSW 10.4 mph - N/A   Clear
3:35 AM 17.6 °F 4.3 °F 10.4 °F 73% 29.71 in 10.0 mi SW 12.7 mph - N/A   Clear
3:55 AM 19.4 °F 7.2 °F 10.4 °F 68% 29.70 in 10.0 mi SSW 11.5 mph - N/A   Partly Cloudy
4:15 AM 21.2 °F 10.1 °F 12.2 °F 68% 29.69 in 10.0 mi SW 10.4 mph - N/A   Mostly Cloudy
4:35 AM 21.2 °F 9.5 °F 12.2 °F 68% 29.69 in 10.0 mi SW 11.5 mph - N/A   Overcast
4:55 AM 21.2 °F 8.9 °F 12.2 °F 68% 29.68 in 10.0 mi SSW 12.7 mph - N/A   Scattered Clouds
5:35 AM 17.6 °F 6.4 °F 12.2 °F 79% 29.68 in 10.0 mi South 9.2 mph - N/A   Mostly Cloudy
5:55 AM 19.4 °F 7.2 °F 14.0 °F 80% 29.67 in 10.0 mi SSW 11.5 mph - N/A   Overcast
6:15 AM 19.4 °F 7.2 °F 10.4 °F 68% 29.67 in 10.0 mi SSW 11.5 mph - N/A   Scattered Clouds
6:35 AM 19.4 °F 9.5 °F 10.4 °F 68% 29.68 in 10.0 mi SW 8.1 mph - N/A   Scattered Clouds
6:55 AM 21.2 °F 11.7 °F 15.8 °F 80% 29.68 in 10.0 mi West 8.1 mph - N/A   Mostly Cloudy
7:15 AM 21.2 °F 9.5 °F 14.0 °F 74% 29.67 in 10.0 mi West 11.5 mph - N/A   Partly Cloudy
7:35 AM 24.8 °F 13.4 °F 17.6 °F 74% 29.69 in 10.0 mi West 12.7 mph - N/A   Mostly Cloudy
7:55 AM 26.6 °F 14.3 °F 19.4 °F 74% 29.69 in 10.0 mi West 16.1 mph - N/A   Overcast
8:15 AM 26.6 °F 13.1 °F 19.4 °F 74% 29.70 in 10.0 mi WNW 19.6 mph 26.5 mph N/A   Overcast
8:35 AM 28.4 °F 16.2 °F 19.4 °F 69% 29.72 in 10.0 mi WNW 17.3 mph 24.2 mph N/A   Overcast
8:55 AM 28.4 °F 17.0 °F 19.4 °F 69% 29.73 in 10.0 mi WNW 15.0 mph 23.0 mph N/A   Overcast
9:35 AM 28.4 °F 16.2 °F 19.4 °F 69% 29.75 in 10.0 mi WNW 17.3 mph - N/A   Overcast
9:55 AM 28.4 °F 15.8 °F 19.4 °F 69% 29.75 in 10.0 mi WNW 18.4 mph - N/A   Overcast
10:15 AM 28.4 °F 17.5 °F 21.2 °F 74% 29.76 in 10.0 mi WNW 13.8 mph 23.0 mph N/A   Overcast
10:35 AM 28.4 °F 17.0 °F 21.2 °F 74% 29.76 in 10.0 mi WNW 15.0 mph 20.7 mph N/A   Overcast
10:55 AM 28.4 °F 14.7 °F 21.2 °F 74% 29.76 in 10.0 mi WNW 21.9 mph 28.8 mph N/A   Overcast
11:15 AM 28.4 °F 15.8 °F 19.4 °F 69% 29.76 in 10.0 mi WNW 18.4 mph 27.6 mph N/A   Overcast
11:35 AM 28.4 °F 15.4 °F 19.4 °F 69% 29.76 in 10.0 mi WNW 19.6 mph 24.2 mph N/A   Overcast
11:55 AM 28.4 °F 15.8 °F 19.4 °F 69% 29.76 in 10.0 mi WNW 18.4 mph 23.0 mph N/A   Overcast
12:15 PM 28.4 °F 17.0 °F 19.4 °F 69% 29.77 in 10.0 mi WNW 15.0 mph 21.9 mph N/A   Mostly Cloudy
12:35 PM 28.4 °F 15.4 °F 21.2 °F 74% 29.77 in 10.0 mi WNW 19.6 mph 26.5 mph N/A   Mostly Cloudy
12:55 PM 28.4 °F 15.4 °F 19.4 °F 69% 29.77 in 10.0 mi NW 19.6 mph - N/A   Overcast
1:15 PM 28.4 °F 16.2 °F 19.4 °F 69% 29.77 in 10.0 mi NW 17.3 mph 27.6 mph N/A   Mostly Cloudy
1:35 PM 28.4 °F 15.4 °F 19.4 °F 69% 29.77 in 10.0 mi WNW 19.6 mph 26.5 mph N/A   Overcast
1:55 PM 28.4 °F 15.4 °F 21.2 °F 74% 29.77 in 10.0 mi WNW 19.6 mph 25.3 mph N/A   Overcast
2:15 PM 28.4 °F 15.4 °F 21.2 °F 74% 29.77 in 10.0 mi WNW 19.6 mph 26.5 mph N/A   Overcast
2:35 PM 28.4 °F 16.6 °F 21.2 °F 74% 29.77 in 10.0 mi WNW 16.1 mph 20.7 mph N/A   Overcast
2:55 PM 28.4 °F 15.1 °F 21.2 °F 74% 29.77 in 10.0 mi West 20.7 mph 25.3 mph N/A   Overcast
3:15 PM 28.4 °F 16.2 °F 19.4 °F 69% 29.78 in 10.0 mi WNW 17.3 mph 27.6 mph N/A   Mostly Cloudy
4:15 PM 28.4 °F 16.6 °F 19.4 °F 69% 29.79 in 10.0 mi WNW 16.1 mph - N/A   Scattered Clouds
4:35 PM 26.6 °F 15.2 °F 19.4 °F 74% 29.79 in 10.0 mi WNW 13.8 mph - N/A   Clear
4:55 PM 26.6 °F 16.8 °F 17.6 °F 69% 29.80 in 10.0 mi West 10.4 mph - N/A   Clear
5:15 PM 26.6 °F 15.2 °F 19.4 °F 74% 29.80 in 10.0 mi West 13.8 mph - N/A   Clear
5:35 PM 26.6 °F 15.7 °F 19.4 °F 74% 29.79 in 10.0 mi West 12.7 mph - N/A   Clear
6:15 PM 26.6 °F 16.2 °F 21.2 °F 80% 29.79 in 10.0 mi West 11.5 mph - N/A   Partly Cloudy
6:35 PM 26.6 °F 14.3 °F 21.2 °F 80% 29.79 in 10.0 mi West 16.1 mph - N/A   Scattered Clouds
6:55 PM 26.6 °F 14.7 °F 21.2 °F 80% 29.78 in 10.0 mi West 15.0 mph 20.7 mph N/A   Mostly Cloudy
7:35 PM 26.6 °F 13.8 °F 21.2 °F 80% 29.78 in 10.0 mi West 17.3 mph 21.9 mph N/A   Partly Cloudy
7:55 PM 28.4 °F 17.0 °F 21.2 °F 74% 29.79 in 10.0 mi West 15.0 mph - N/A   Clear
8:15 PM 26.6 °F 15.7 °F 19.4 °F 74% 29.80 in 10.0 mi West 12.7 mph - N/A   Clear
8:35 PM 26.6 °F 17.5 °F 19.4 °F 74% 29.80 in 10.0 mi West 9.2 mph - N/A   Clear
8:55 PM 26.6 °F 15.7 °F 21.2 °F 80% 29.79 in 10.0 mi West 12.7 mph - N/A   Clear
9:15 PM 24.8 °F 13.4 °F 19.4 °F 80% 29.80 in 10.0 mi West 12.7 mph - N/A   Clear
9:35 PM 24.8 °F 14.0 °F 19.4 °F 80% 29.80 in 10.0 mi West 11.5 mph - N/A   Clear
9:55 PM 24.8 °F 14.0 °F 19.4 °F 80% 29.79 in 10.0 mi West 11.5 mph - N/A   Clear
10:15 PM 21.2 °F 10.9 °F 15.8 °F 80% 29.79 in 10.0 mi West 9.2 mph - N/A   Clear
10:35 PM 19.4 °F 7.9 °F 15.8 °F 86% 29.79 in 10.0 mi West 10.4 mph - N/A   Partly Cloudy
10:55 PM 19.4 °F 7.2 °F 15.8 °F 86% 29.79 in 10.0 mi WNW 11.5 mph - N/A   Clear
11:15 PM 21.2 °F 8.9 °F 19.4 °F 93% 29.80 in 10.0 mi West 12.7 mph - N/A   Clear
11:35 PM 21.2 °F 10.1 °F 17.6 °F 86% 29.79 in 10.0 mi West 10.4 mph - N/A   Clear